Regional Weather Roundup
Issued by NWS Charleston, SC

Current Version | Previous Version | Graphics & Text | Print | Product List | Glossary On
Versions: 1 2 3 4 5 6 7 8 9 10 11 12 13 14 15 16 17 18 19 20 21 22 23 24 25 26 27 28 29 30 31 32 33 34 35 36 37 38 39 40 41 42 43 44 45 46 47 48 49 50
000 ASUS42 KCHS 241711 RWRCHS REGIONAL WEATHER ROUNDUP NATIONAL WEATHER SERVICE CHARLESTON SC 1200 PM EST FRI FEB 24 2017 NOTE: "FAIR" INDICATES FEW OR NO CLOUDS BELOW 12,000 FEET WITH NO SIGNIFICANT WEATHER AND/OR OBSTRUCTIONS TO VISIBILITY. NOT ALL STATIONS ARE QUALITY CONTROLLED. USE DATA WITH CAUTION... ESPECIALLY DEWPOINT OBSERVATIONS. SCZ027-030-031-034>040-042>050-241800- ...SOUTHEAST SOUTH CAROLINA... CITY SKY/WX TMP DP RH WIND PRES REMARKS N CHARLESTON MOSUNNY 79 60 52 NE8 29.88F WATERFRONT PRK N/A 73 64 73 E8 29.87F MOUNT PLEASANT FAIR 77 63 61 E5 29.89F JOHNS ISLAND FAIR 75 63 64 NE10 29.88F PINOPOLIS N/A N/A N/A N/A NW7 29.82F MONCKS CORNER FAIR 73 57 56 CALM 29.89F SUMMERVILLE FAIR 73 59 60 E3 29.90F BEAUFORT MCAS SUNNY 76 64 66 NE9 29.88F BEAUFORT ARPT FAIR 73 63 68 NE9 29.88F HILTON HEAD IS SUNNY 73 64 73 NE7 29.89F WALTERBORO PTSUNNY 75 59 57 E5 29.90F ALLENDALE FAIR 75 59 57 CALM 29.89S ...SOUTHERN MIDLANDS AND PEE DEE... CITY SKY/WX TMP DP RH WIND PRES REMARKS GEORGETOWN FAIR 73 61 64 E9 29.90F KINGSTREE FAIR 73 59 60 SE7 29.90F ORANGEBURG MOSUNNY 74 60 61 CALM 29.90F BARNWELL FAIR 75 61 60 VRB3 29.90F AIKEN FAIR 72 55 56 NE3 29.94F MANNING FAIR 73 45 35 MISG 29.90F COLUMBIA MOSUNNY 74 57 55 CALM 29.90F SUMTER MOSUNNY 74 58 56 E5 29.88F FLORENCE SUNNY 74 59 59 VRB6 29.90F MYRTLE BEACH MOSUNNY 75 61 60 E9 29.90F N MYRTLE BEACH SUNNY 74 61 63 SE8 29.89F $$ GAZ063-065-086>088-099>101-113>116-118-119-134>141-150-241800- ...SOUTHEAST GEORGIA... CITY SKY/WX TMP DP RH WIND PRES REMARKS SAVANNAH ARPT MOSUNNY 78 60 53 E10 29.88F HUNTER AAF SUNNY 77 67 71 E9 29.86F FORT STEWART MOSUNNY 77 61 57 NE8 29.86F STATESBORO SUNNY 75 64 66 E5 29.90S SYLVANIA SUNNY N/A N/A N/A NE5 29.91S CLAXTON FAIR N/A N/A N/A N3 29.90S ...CSRA...CENTRAL AND FAR SOUTHEAST GEORGIA... CITY SKY/WX TMP DP RH WIND PRES REMARKS THOMSON SUNNY 76 61 58 SE6 29.95F AUGUSTA-BUSH SUNNY 77 59 53 NW3 29.90F AUGUSTA-DANIEL SUNNY 74 53 48 SE3 29.92F SWAINSBORO FAIR 75 57 53 S6 29.91F VIDALIA MOSUNNY 77 63 61 CALM 29.89F EASTMAN FAIR 78 45 31 SE6 29.92F HAZLEHURST FAIR 77 64 64 CALM 29.89F ALMA MOSUNNY 77 63 61 VRB5 29.88S WAYCROSS PTSUNNY 79 67 66 E3 29.87F JESUP FAIR 77 61 57 SE6 29.88S BAXLEY FAIR 77 66 69 NE3 29.88F BRUNSWICK SUNNY 77 66 69 E15 29.88F SAINT SIMONS SUNNY 73 64 73 NE12 29.87F $$ SCZ027-028-034-036>038-045-046-048>050-GAZ119-141-241800- ...LAKE AND SUPPLEMENTAL COASTAL OBSERVATIONS... STATION/POSITION TIME TEMP WIND PRES WAVE SWELL AIR SEA DIR/SP/G HT/PER HT/PER/DIR (UTC) (F) (DEG/KT/KT) (MB) (FT/S) (FT/S/D) WINYAH BAY NOT AVBL LAKE MURRAY 1620 65 220/ 2/ 3 1012.9 ACE BASIN NERRS 1545 74 40/ 3 1012.0 FORT PULASKI 1648 62 90/ 11/ 14 1012.0F SAPELO ISLAND 1600 74 50/ 9 1012.0 $$ ANZ835-935-AMZ111-154-330-350-352-354-370-450-454-472-241800- ...C-MAN AND BUOY OBSERVATIONS... STATION/POSITION TIME TEMP WIND PRES WAVE SWELL AIR SEA DIR/SP/G HT/PER HT/PER/DIR (UTC) (F) (DEG/KT/KT) (MB) (FT/S) (FT/S/D) BUOY 41004 1550 68 70 20/ 12/ 16 1011.8 9/10 8/120/10 BUOY 41008 1550 63 62 10/ 12/ 12 1011.8 5/11 5/ 80/11 FOLLY BEACH CMAN 1600 65 40/ 10/ 11 1013.2F CAPERS NEARSHORE 1608 63 60 50/ 8/ 12 1012.6S FRIPP NEARSHORE 1608 63 61 40/ 6/ 8 1012.2F STATION/POSITION TIME TEMP WIND PRES WAVE SWELL AIR SEA DIR/SP/G HT/PER HT/PER/DIR (UTC) (F) (DEG/KT/KT) (MB) (FT/S) (FT/S/D) 5E ST. MARYS GA 1630 64 N/A 5/11 3/110/11 FRYING PAN BUOY 1650 69 72 30/ 14/ 17 1011.8F 8/11 7/160/11 BUOY 41025 1650 72 74 130/ 17/ 21 1012.8F 7/ 9 5/140/ 9 CAPE LOOKOUT NC 1600 67 30/ 8/ 10 1013.0F BUOY 41002 1550 69 70 60/ 17/ 21 1007.2 13/10 10/120/10 BUOY 41010 NOT AVBL ST AUGUSTINE FL 1700 66 67 360/ 14/ 16 1011.9F $$

USA.gov is the U.S. government's official web portal to all federal, state and local government web resources and services.